Погода Усановы

Погода Усановы : погода сейчас, прогноз погоды и архив. Всё, что Вы хотите узнать о погоде Усановы!

Поиск расширенной информации на нашем сайте:

Другие новости

Новости СМИ2

Главная страница сайта

Новости сайта

03.07.2017

Напоминаем, что на нашем специализированном сайте Метеоцентр.Азия вы можете получить высокодетализированные автоматические прогнозы погоды по пунктам России, СНГ и мира в авиационном формате (включающие направление и скорость ветра, видимость, явления погоды, количество и форму облачности, нижнюю и верхнюю границу облачности).

Рекомендуем: Генераторы бензиновые купить генераторы.

Погода Усановы - сегодня

Время (UTC), дата Ветер
(°,м/с) 
Видим.   Явления Облачность Т
(°С)
Тd
(°С)
f(%) Тe
(°С)
Pmin
(гПа)
dP
(гПа)
Po
(мм)
O2
(г/м3)
Тmin Tmax R s Состояние
почвы
12 21.02.18 080 (В) 10 км    10/0 средняя 
[Ac As]
-6.6 -11.8 66 -6  1015.4  -2.1  756  313           
18 21.02.18 110 (В) н/о    н/о 
-7.3 -12.2 68 -9  1010.9  -2.2  752  313           
21 21.02.18 130 (ЮВ) н/о    н/о 
-7.8 -9.3 89 -9  1010.1  -0.9  752  313           
00 22.02.18 100 (В) н/о    н/о 
-8.1 -10.7 82 -8  1008.5  -1.5  750  313           
03 22.02.18 150 (ЮВ) 4000 м  снег  10/0 средняя 
[Ac As]
-8.7 -9.7 92 -8  1008.8  0.3  751  313  -8.8    53  равномерный
сухой снег
100% 
06 22.02.18 200 (Ю) 10 км  слаб. снег  10/4 600 м средняя 
[Sc|Ac As]
-7.2 -9.7 82 -7  1009.4  0.6  751  312           
09 22.02.18 220 (ЮЗ) 10 км  слаб. ливневой снег  8/8 300 м кучево-дожд. 
[Cb cap]
-7.4 -10.8 77 -10  1011.2  1.8  752  313           
12 22.02.18 240 (ЮЗ) 10 км  {ливн. осадки}  ясно 
-9.8 -12.3 82 -10  1013.4  2.1  754  316           
15 22.02.18 тихо ()   10 км    ясно 
-16.8 -17.8 92 -17  1014.8  1.2  755  326    -5.9     
18 22.02.18 тихо ()   10 км    ясно 
-21.8 -23.5 86 -22  1015.9  0.9  756  333           
21 22.02.18 тихо ()   10 км    ясно 
-25.1 -27.3 82 -25  1016.6  0.6  756  337           
00 23.02.18 тихо ()   10 км    ясно 
-24.8 -27.2 80 -25  1016.7  0.1  756  337           
03 23.02.18 тихо ()   10 км    ясно 
-27.3 -29.9 79 -27  1017.3  0.5  757  341  -27.5      55  равномерный
сухой снег
100% 
06 23.02.18 250 (З) 10 км    ясно 
-14.5 -17.8 76 -15  1017.1  0.3  757  323           
09 23.02.18 250 (З) 10 км    1/1 600 м 
[Sc]
-11.1 -16.2 66 -11  1017  0.1  757  319           
12 23.02.18 240 (ЮЗ) 10 км    ясно 
-14.6 -18.2 74 -15  1017.7  0.6  757  324           
15 23.02.18 тихо ()   10 км    ясно 
-22.6 -24.2 87 -23  1018.3  0.4  757  334    -10.7       
18 23.02.18 тихо ()   10 км    ясно 
-26.9 -29.3 80 -27  1018.3  -0.2  757  340           
21 23.02.18 тихо ()   10 км    ясно 
-28.9 -31.5 78 -29  1018.5  0.2  757  343           
00 24.02.18 тихо ()   10 км    ясно 
-30.6 -33.5 76 -31  1018.8  0.2  758  346           
03 24.02.18 тихо ()   10 км    ясно 
-31.3 -34.4 74 -31  1019  0.2  758  347  -31.6      55  равномерный
сухой снег
100% 
06 24.02.18 260 (З) 10 км    ясно 
-18.3 -22.2 71 -21  1019  0.4  758  329           
09 24.02.18 220 (ЮЗ) 10 км    ясно 
-15 -20.7 62 -15  1019.3  0.4  758  325           
12 24.02.18 240 (ЮЗ) 10 км    ясно 
-17.1 -20.9 72 -17  1020.6  1.2  759  328           
15 24.02.18 тихо ()   10 км    ясно 
-25.7 -27.9 82 -26  1021.8  760  340    -14.8       
Время (UTC), дата Ветер
(°,м/с) 
Видим.   Явления Облачность Т
(°С)
Тd
(°С)
f(%) Тe
(°С)
Pmin
(гПа)
dP
(гПа)
Po
(мм)
O2
(г/м3)
Тmin Tmax R s Состояние
почвы

Для получения пояснительной информации подведите курсор к названию столбца.

ПОГОДА Усановы - архив

Всё, что Вы хотите узнать о погоде Усановы - удобно и подробно!

Выберите нужную дату (начиная с 1 января 2015* года) и нажмите кнопку "Найти".
Будут отображены архивные сводки погоды по пункту Усановы, начиная с указанной даты.


Отображать данные в формате CSV (для использования в таблицах Excel)


Внимание! Наш архив погоды предназначен исключительно для личного некоммерческого использования в познавательных целях. Если Вам необходимы официальные справки о состоянии погоды (для производственных, юридических, коммерческих и т.п. целей), обращайтесь в органы Росгидромета.

*Примечание: данная дата относится к архиву по метеостанциям СССР (Россия, СНГ, Балтия).
Архив по метеостанциям Зарубежной Европы и Азии (кроме Китая) хранится 10 дней, по другим регионам земного шара (Китай, Африка, Америка, Австралия, Океания) - 1 день.

Усановы - район местоположения метеостанции


Название, широта, долгота, высота метеостанции:
Усановы 59.5°ш. 73.4°д. 82 м над ур. моря [Российская Федерация]

Дополнительная информация

В oтличие oт бoльшинства пoгoдных сайтoв мы публикуем пoдрoбную метеoинфoрмацию в детальнoм прoфессиoнальнoм фoрмате.

Характеристики температуры и влажнoсти вoздуха измеряются на высoте 2 м в тени вдали oт зданий и деревьев.
Скoрoсть ветра измеряется на высoте 10 м (на урoвне рoста челoвека скoрoсть ветра ниже в 1.5-2 раза). Если метеoстанция нахoдится в гoрoде или в лесу, тo скoрoсть ветра занижена на 2-4 м/с пo сравнению с oткрытым местoм. Скoрoсть ветра над акватoриями крупных рек и oзёр, а также на вершинах хoлмoв на 2-5 м/с выше, чем в oбычных услoвиях.
Атмoсфернoе давление в разных тoчках местнoсти мoжет значительнo oтличаться oт давления на метеoстанции, в зависимoсти oт услoвий рельефа (при пoдъёме на 10 м давление пoнижается примернo на 1 мм рт.ст.).